Weather History for CWPR - September, 2012

Change the Weather History Date:

Sunday, September 16, 2012

  Actual Average Record
Temperature  
Mean Temperature 57 °F -  
Max Temperature 78 °F - - ()
Min Temperature 36 °F - - ()
Degree Days  
Heating Degree Days 8    
Growing Degree Days 7 (Base 50)    
Moisture  
Dew Point 30 °F    
Average Humidity 40    
Maximum Humidity 76    
Minimum Humidity 7    
Precipitation  
Precipitation 0.00 in - - ()
Sea Level Pressure  
Sea Level Pressure 30.27 in    
Wind  
Wind Speed 1 mph ()    
Max Wind Speed 8 mph    
Max Gust Speed -    
T = Trace of Precipitation, MM = Missing Value Source: Averaged Metar Reports

Daily Weather History Graph

Daily Weather History Graph

Search for Another Location

Airport or City:

Trip Planner

Search our weather history database for the weather conditions in past years. The results will help you decide how hot, cold, wet, or windy it might be!

Date:

Astronomy

Sep. 16, 2012 Rise Set
Actual Time 6:40 AM PDT 7:11 PM PDT
Civil Twilight 6:08 AM PDT 7:43 PM PDT
Nautical Twilight 5:30 AM PDT 8:21 PM PDT
Astronomical Twilight 4:50 AM PDT 9:01 PM PDT
Moon 7:35 AM PDT (9/16) 7:06 PM PDT (9/16)
Length of Visible Light 13h 35m
Length of Day
12h 31m
New Moon, 1% of the Moon is Illuminated
Sep 16
New Moon
Sep 22
First Quarter
Sep 29
Full
Oct 8
Last Quarter
Oct 15
New

Hourly Weather History & Observations

Time (PDT) Temp. Dew Point Humidity Pressure Visibility Wind Dir Wind Speed Gust Speed Precip Events Conditions
12:00 AM 51.8 °F 33.1 °F 49% 30.23 in - Calm Calm - N/A   Unknown
1:00 AM 49.1 °F 34.3 °F 57% 30.25 in - Calm Calm - N/A   Unknown
2:00 AM 46.6 °F 34.2 °F 62% 30.27 in - Calm Calm - N/A   Unknown
3:00 AM 44.2 °F 34.9 °F 70% 30.27 in - Calm Calm - N/A   Unknown
4:00 AM 42.4 °F 31.3 °F 65% 30.30 in - Calm Calm - N/A   Unknown
5:00 AM 41 °F 32 °F 61% 30.31 in - Calm Calm - -  
5:00 AM 41.4 °F 32.0 °F 69% 30.31 in - Calm Calm - N/A   Unknown
6:00 AM 37.9 °F 30.4 °F 74% 30.34 in - Calm Calm - N/A   Unknown
7:00 AM 37.4 °F 30.4 °F 76% 30.37 in - Calm Calm - N/A   Unknown
8:00 AM 41.9 °F 31.6 °F 67% 30.38 in - Calm Calm - N/A   Unknown
9:00 AM 47.7 °F 34.0 °F 59% 30.38 in - Calm Calm - N/A   Unknown
10:00 AM 52.5 °F 33.4 °F 48% 30.37 in - Calm Calm - N/A   Unknown
11:00 AM 59 °F 33 °F 25% 30.33 in - Calm Calm - -  
11:00 AM 59.0 °F 32.9 °F 37% 30.33 in - Calm Calm - N/A   Unknown
12:00 PM 65.1 °F 30.9 °F 28% 30.30 in - SSE 1.2 mph - N/A   Unknown
1:00 PM 71.2 °F 30.9 °F 23% 30.27 in - SE 3.5 mph - N/A   Unknown
2:00 PM 72.5 °F 28.6 °F 20% 30.24 in - SSW 3.5 mph - N/A   Unknown
3:00 PM 75.7 °F 26.6 °F 16% 30.21 in - East 2.3 mph - N/A   Unknown
4:00 PM 76.6 °F 23.2 °F 14% 30.19 in - NNE 6.9 mph - N/A   Unknown
5:00 PM 77 °F 24 °F 7% 30.19 in - NE 8.1 mph - -  
5:00 PM 77.2 °F 23.9 °F 14% 30.19 in - NE 8.1 mph - N/A   Unknown
6:00 PM 75.6 °F 24.4 °F 15% 30.19 in - North 5.8 mph - N/A   Unknown
7:00 PM 67.6 °F 25.9 °F 21% 30.19 in - WNW 1.2 mph - N/A   Unknown
8:00 PM 62.6 °F 26.6 °F 26% 30.21 in - WNW 3.5 mph - N/A   Unknown
9:00 PM 58.5 °F 26.6 °F 30% 30.22 in - Calm Calm - N/A   Unknown
10:00 PM 54.7 °F 26.4 °F 34% 30.23 in - Calm Calm - N/A   Unknown
11:00 PM 54 °F 28 °F 24% 30.24 in - Calm Calm - -  
11:00 PM 53.8 °F 27.5 °F 36% 30.24 in - Calm Calm - N/A   Unknown